Presure
160 152 170 99 145 139 142 126 131 122 124 147 154 114 150 158 82 131 151 151 128 122 106 98 136 149 143 110 133 87 76 136 148
154 158 165 146 141 132 149 151 128 142 137 141 144 149 138 138 94 154 156 139 144 149 133 142 137 133 135 117 82 110 125 145 158
147 147 156 159 146 159 139 157 150 149 139 100 130 122 139 146 121 152 145 134 134 147 142 108 115 127 128 131 92 114 144 143 140
128 134 131 152 149 164 157 139 143 137 144 120 144 124 150 148 94 123 89 137 140 133 136 137 125 122 135 100 122 90 115 112 139
157 137 127 147 157 151 143 162 126 143 148 137 125 89 139 134 142 127 143 150 144 158 130 106 137 145 136 132 126 101 90 122 74
139 118 153 139 132 136 161 158 151 127 139 144 146 126 137 123 141 127 147 141 147 144 115 114 127 166 144 136 113 135 116 138 129
155 147 129 143 152 144 139 155 151 148 153 119 142 88 140 137 106 127 133 141 127 127 151 128 106 132 149 115 128 117 98 117 101
147 146 165 126 125 151 145 140 140 136 153 151 165 111 112 136 134 144 131 109 99 109 125 144 147 123 155 94 106 127 138 130 137
96 150 101 146 152 139 120 135 130 158 150 167 153 127 161 152 140 147 147 99 141 143 122 121 144 114 138 133 137 112 114 124 130
135 116 156 126 116 142 157 119 122 143 154 120 156 152 145 164 161 162 118 156 135 119 141 114 144 134 131 138 136 122 128 122 127
133 116 123 136 144 145 127 157 149 153 127 166 135 154 158 148 148 138 152 146 164 151 138 112 131 143 120 130 110 99 96 119 131
151 157 107 142 132 167 135 166 123 137 128 151 135 147 141 151 154 152 94 150 128 91 155 137 159 152 120 131 125 149 123 132 139
133 102 167 130 132 83 112 146 158 131 142 141 147 140 131 142 138 151 152 156 93 153 136 116 105 130 167 160 126 119 162 132 115
162 152 123 148 119 118 89 123 124 163 144 121 126 142 135 140 143 139 139 142 147 154 150 140 157 152 140 129 150 146 152 151 150
221 180 152 137 153 137 153 142 145 102 162 116 147 125 143 128 143 143 148 134 149 146 152 154 156 130 132 150 161 156 147 133 134
91 177 207 181 156 150 137 147 153 122 173 108 121 132 135 156 142 141 133 141 138 141 133 153 156 152 135 152 140 122 121 147 133
129 195 183 171 141 123 132 134 129 129 153 145 157 147 144 138 136 155 136 140 141 133 136 132 136 155 154 156 157 141 125 157 131
177 231 213 167 110 265 240 256 132 161 160 113 142 121 112 122 148 141 143 135 139 140 134 137 138 127 161 165 167 133 136 146 139
220 197 104 200 202 207 224 127 227 160 82 143 106 106 117 152 150 144 133 143 139 143 140 135 144 152 128 156 155 161 127 153 143
226 219 244 213 205 572 136 110 225 225 153 145 142 133 163 129 132 153 147 115 142 125 149 149 142 142 147 137 138 149 160 148 155
Wind_Speed
42 39 37 23 30 31 30 30 28 27 26 22 17 24 13 11 9 18 6 6 15 11 19 24 15 16 16 13 23 15 10 21 21
41 42 40 39 36 34 29 27 31 27 27 27 24 21 21 22 13 10 5 15 9 8 12 10 12 14 14 13 10 22 24 26 22
44 42 42 41 39 37 37 32 32 32 31 22 26 24 21 20 25 16 15 19 17 10 15 18 16 16 15 14 16 19 20 22 25
38 39 38 43 42 40 38 37 36 36 34 29 29 27 25 23 16 25 17 20 18 18 15 18 19 18 18 16 18 20 26 26 25
53 44 38 46 45 43 41 40 35 37 39 36 33 23 29 26 23 22 25 25 24 21 22 17 15 15 17 21 22 25 19 25 12
52 40 53 47 43 43 46 42 42 35 40 39 33 32 35 32 28 32 28 28 28 24 17 18 22 16 14 21 18 24 27 24 35
63 53 46 53 55 49 43 46 44 44 45 33 40 22 39 37 25 30 31 28 27 22 27 24 25 24 17 21 23 28 22 23 20
69 64 70 48 47 56 50 46 44 41 47 47 43 34 32 41 36 37 33 18 23 30 26 28 26 28 21 30 23 30 27 26 30
42 72 45 56 58 54 45 49 43 54 50 56 49 36 45 48 43 42 46 25 37 36 29 28 27 27 25 27 27 32 34 29 35
65 54 81 60 47 54 63 46 42 52 55 38 52 50 46 46 46 44 34 47 38 37 39 30 39 30 27 27 27 33 29 37 35
71 61 59 64 75 65 55 68 63 61 46 60 45 50 51 47 46 43 43 44 45 44 39 33 35 39 30 29 32 33 27 33 37
85 89 52 75 59 83 66 83 48 55 50 63 51 53 49 50 51 50 32 46 42 27 44 38 45 47 34 39 34 40 37 34 39
71 60 89 68 68 48 59 77 81 57 62 65 67 58 50 54 47 52 51 51 33 48 41 43 33 37 47 44 37 38 45 36 32
93 97 74 91 63 66 54 69 68 89 74 54 58 64 56 57 56 51 50 48 50 52 48 46 47 45 41 41 43 42 38 48 44
91 103 98 86 95 78 84 85 86 55 94 58 77 58 65 53 61 59 58 53 58 53 54 50 49 39 38 43 45 47 45 41 39
66 87 95 112 111 101 80 94 102 65 102 61 65 65 66 71 64 64 61 61 58 54 45 54 52 49 40 48 40 43 45 51 41
70 86 92 98 93 75 73 91 89 86 97 88 89 80 77 69 67 72 69 67 61 55 52 48 48 53 51 50 49 47 44 53 45
82 75 79 87 66 93 98 104 76 110 97 72 85 70 64 62 80 76 77 72 68 65 57 55 54 47 57 55 53 49 48 52 50
63 74 72 81 80 75 75 72 110 109 43 94 65 69 72 89 88 82 76 78 73 71 67 57 61 61 51 52 52 53 51 55 55
59 63 57 71 66 24 66 73 92 106 108 93 88 75 99 77 76 93 87 65 78 65 75 73 65 61 60 59 57 53 55 57 56
Wind_Direction
228 233 237 240 230 229 231 250 245 254 253 254 258 277 266 302 317 276 300 316 277 282 319 326 345 353 358 310 350 339 11 345 359
234 230 231 234 237 244 227 228 254 236 246 247 248 251 261 269 288 296 290 270 292 317 302 325 323 339 337 281 337 321 350 7 6
244 240 230 231 236 235 242 233 226 251 247 256 254 265 253 259 283 282 254 274 282 300 304 305 316 323 329 321 306 335 10 5 357
248 247 248 239 235 240 240 245 239 251 254 264 246 265 254 253 261 276 280 270 269 286 288 297 307 314 325 315 318 321 324 329 346
237 246 257 246 243 238 240 236 257 245 237 257 267 228 252 254 251 271 270 271 276 286 292 282 293 295 315 316 322 289 329 332 344
253 250 241 247 252 248 248 237 235 239 252 247 241 254 259 266 257 267 261 273 277 274 278 300 299 294 292 306 315 320 316 337 333
257 239 247 244 248 251 249 241 240 240 243 261 255 261 257 263 271 263 263 264 274 273 280 281 288 295 287 291 309 320 327 329 329
258 263 254 252 249 247 248 253 247 248 242 244 241 264 262 262 266 261 263 256 245 271 283 281 280 291 284 306 298 315 316 321 325
248 245 251 253 246 248 251 256 253 250 249 256 245 242 240 245 258 254 252 251 268 269 280 291 275 287 282 294 290 311 315 321 320
252 245 253 253 243 251 248 253 254 251 252 255 246 247 247 243 244 245 248 250 255 285 266 292 276 278 278 281 285 307 313 318 316
248 251 255 256 249 258 249 253 249 248 259 248 256 249 250 250 251 253 255 253 252 257 263 286 271 273 282 280 305 296 304 307 311
251 246 246 251 255 248 255 253 251 256 258 252 259 256 257 255 254 257 250 256 264 254 261 269 262 266 291 278 287 285 301 291 299
250 246 244 246 252 247 252 256 255 251 250 257 256 257 258 259 258 256 260 261 266 264 262 279 261 271 267 269 286 294 280 289 291
245 242 245 250 242 248 248 249 254 254 251 252 254 258 260 258 257 258 261 262 264 264 265 267 267 268 272 274 279 280 281 291 290
248 246 242 254 246 250 245 248 255 247 252 250 250 254 256 257 257 257 257 260 263 264 264 265 268 268 269 273 282 284 283 282 287
250 250 247 244 248 251 256 254 252 244 250 246 249 253 256 247 256 257 260 257 261 262 260 266 267 268 268 274 276 276 283 286 282
247 252 249 246 254 244 246 248 248 249 249 249 249 250 250 254 257 247 260 259 258 262 262 262 265 270 269 273 273 275 277 282 281
253 259 257 249 251 251 245 237 241 241 244 245 245 247 249 252 250 253 252 260 259 258 259 261 264 267 269 271 273 273 276 279 284
266 257 244 252 254 250 245 245 231 241 246 245 247 248 247 249 250 252 254 255 259 258 259 259 262 264 268 265 268 271 277 275 277
276 273 279 249 259 295 248 245 232 229 243 248 251 243 245 251 251 251 251 253 253 257 256 257 259 260 262 264 268 268 270 273 276